#timestamp,LO_Frequency,Hit,StdDev 
1637985615.7,286047000.0,N
1637985635.5,286047000.9,N
1637985655.3,286047002.8,N
1637985675.2,286047000.7,N
1637985695.0,286047001.0,N
1637985695.9,286047001.0,N
1637985715.7,286047002.6,N
1637985735.6,286047002.6,N
1637985755.4,286047002.6,N
1637985775.3,286047002.4,N
1637985795.1,286047002.4,N
1637985796.0,286047002.4,N
1637985815.8,286047002.3,N
1637985835.7,286047001.2,N
1637985855.5,286046999.4,N
1637985875.3,286046996.6,Y
1637985895.2,286046996.7,P
1637985915.0,286046999.5,N
1637985915.9,286046999.5,N
1637985935.8,286046997.1,N
1637985955.6,286046996.5,N
1637985975.4,286046999.5,N
1637985995.3,286047000.5,N
1637986015.1,286046998.2,N
1637986035.9,286047000.6,N
1637986055.7,286047002.2,N
1637986075.5,286047001.7,N
1637986095.4,286047001.5,N
1637986115.2,286047001.6,N
1637986135.0,286047002.1,N
1637986135.9,286047002.1,N
1637986155.8,286047003.9,N
1637986175.6,286047004.0,N
1637986195.5,286047002.0,N
1637986215.3,286046999.9,N
1637986235.1,286046999.7,N
1637986255.9,286046999.7,N
1637986275.7,286047002.7,N
1637986295.5,286047002.7,N
1637986315.4,286047000.1,N
1637986335.2,286047002.5,N
1637986355.1,286047002.8,N
1637986356.0,286047002.8,N
1637986375.8,286047001.9,N
1637986395.6,286047002.8,N
1637986415.5,286047000.7,N
1637986435.3,286046998.6,N
1637986455.2,286046998.4,N
1637986475.9,286046998.6,N
1637986495.7,286046999.0,N
1637986515.6,286046998.4,N
1637986535.4,286046998.7,N
1637986555.2,286046998.7,N
1637986575.1,286046998.6,N
1637986576.0,286046998.6,N
1637986595.8,286046998.6,N
1637986615.7,286046998.1,N
1637986635.5,286047001.1,N
1637986655.3,286047000.6,N
1637986675.2,286047001.2,N
1637986695.0,286047000.8,N
1637986695.9,286047000.8,N
1637986715.7,286046998.7,N
1637986735.6,286046999.0,N
1637986755.4,286046995.4,N
1637986775.3,286046997.7,N
1637986795.1,286046999.0,N
1637986796.0,286046999.0,N
1637986815.8,286046998.7,N
1637986835.7,286047000.6,N
1637986855.5,286047000.9,N
1637986875.4,286046998.7,N
1637986895.2,286046998.5,N
1637986915.0,286046998.7,N
1637986915.9,286046998.7,N
1637986935.8,286046998.3,N
1637986955.6,286047000.6,N
1637986975.4,286047001.0,N
1637986995.3,286046999.2,N
1637987015.1,286046998.7,N
1637987035.9,286046998.5,N
1637987055.7,286046998.2,N
1637987075.5,286046998.1,N
1637987095.4,286046998.3,N
1637987115.2,286046996.6,N
1637987135.0,286046999.1,N
1637987135.9,286046999.1,N
1637987155.8,286046996.5,N
1637987175.6,286046999.1,N
1637987195.5,286046999.4,N
1637987215.3,286046998.3,N
1637987235.1,286046999.2,N
1637987255.9,286046999.1,N
1637987275.7,286046999.3,N
1637987295.5,286046998.4,N
1637987315.4,286046999.1,N
1637987335.2,286046999.2,N
1637987355.1,286046997.1,N
1637987356.0,286046997.1,N
1637987375.8,286046999.1,N
1637987395.6,286046999.3,N
1637987415.5,286047000.5,N
1637987435.3,286047000.4,N
1637987455.2,286047000.2,N
1637987475.9,286046999.7,N
1637987495.7,286047002.5,N
1637987515.6,286047001.9,N
1637987535.4,286047002.6,N
1637987555.2,286047001.9,N
1637987575.1,286047002.8,N
1637987576.0,286047002.8,N
1637987595.8,286047001.4,N
1637987615.7,286047002.4,N
1637987635.5,286047002.4,N
1637987655.3,286047002.3,N
1637987675.2,286047000.3,N
1637987695.0,286047000.5,N
1637987695.9,286047000.5,N
1637987715.8,286047002.3,N
1637987735.6,286047000.1,N
1637987755.4,286047002.5,N
1637987775.3,286047002.7,N
1637987795.1,286047002.4,N
1637987815.8,286047001.9,N
1637987835.7,286047001.3,N
1637987855.5,286047001.4,N
1637987875.3,286047001.8,N
1637987895.2,286047001.9,N
1637987915.0,286047000.1,N
1637987915.9,286047000.1,N
1637987935.8,286047000.0,N
1637987955.6,286047001.0,N
1637987975.4,286047001.0,N
1637987995.3,286047000.0,N
1637988015.1,286047001.0,N
1637988035.9,286047000.5,N
1637988055.7,286047000.9,N
1637988075.5,286047000.7,N
1637988095.4,286047000.3,N
1637988115.2,286047000.8,N
1637988135.1,286047000.2,N
1637988136.0,286047000.2,N
1637988155.8,286047001.2,N
1637988175.6,286047000.3,N
1637988195.5,286047000.7,N
1637988215.3,286047000.3,N
1637988235.1,286047000.3,N
1637988255.9,286047000.3,N
1637988275.7,286047000.1,N
1637988295.6,286047000.5,N
1637988315.4,286047001.8,N
1637988335.2,286047000.0,N
1637988355.1,286047002.8,Y
1637988356.0,286047002.8,P
1637988375.8,286047000.0,N
1637988395.7,286047002.7,N
1637988415.5,286047002.7,N
1637988435.3,286047002.8,N
1637988455.2,286047000.2,N
1637988475.0,286047002.1,N
1637988475.9,286047002.1,N
1637988495.8,286047002.1,N
1637988515.6,286046999.7,N
1637988535.4,286046999.9,N
1637988555.3,286046999.8,N
1637988575.1,286047001.5,N
1637988595.8,286047004.4,Y
1637988615.7,286046999.9,P
1637988635.5,286046999.9,N
1637988655.4,286047000.8,N
1637988675.2,286047000.0,N
1637988695.0,286046999.7,N
1637988695.9,286046999.7,N
1637988715.8,286047002.8,Y
1637988735.6,286047000.3,P
1637988755.5,286046999.7,P
1637988775.3,286047000.5,N
1637988795.1,286047001.2,Y
1637988815.9,286047000.7,P
1637988835.7,286047000.5,N
1637988855.6,286047000.8,P
1637988875.4,286046998.9,Y
1637988895.2,286046997.8,P
1637988915.1,286046997.4,N
1637988916.0,286046997.4,N
1637988935.8,286046996.6,N
1637988955.6,286046998.4,N
1637988975.5,286046998.8,N
1637988995.3,286046998.4,N
1637989015.2,286046998.2,N
1637989035.0,286046998.6,N
1637989035.9,286046998.6,N
1637989055.7,286046998.4,N
1637989075.6,286046999.6,N
1637989095.4,286046997.1,Y
1637989115.3,286047001.2,P
1637989135.1,286046998.6,N
1637989155.9,286047000.6,N
1637989175.7,286047000.7,N
1637989195.5,286047000.5,N
